Regional Weather Roundup
Issued by NWS

Home | Current Version | Previous Version | Graphics & Text | Print | Product List | Glossary On
Versions: 1 2 3 4 5 6 7 8 9 10 11 12 13 14 15 16 17 18 19 20 21 22 23 24 25 26 27 28 29 30 31 32 33 34 35 36 37 38 39 40 41 42 43 44 45 46 47 48 49 50
000
ASUS43 KLOT 172003
RWRIL

ILLINOIS REGIONAL WEATHER ROUNDUP
NATIONAL WEATHER SERVICE CHICAGO/ROMEOVILLE IL
200 PM CST TUE JAN 17 2017

NOTE: "FAIR" INDICATES FEW OR NO CLOUDS BELOW 12,000 FEET WITH NO
SIGNIFICANT WEATHER AND/OR OBSTRUCTIONS TO VISIBILITY.

* THESE STATIONS ARE NOT UNDER NWS QUALITY CONTROL. THEY ALSO MAY NOT
  REPORT WEATHER SUCH AS PRECIPITATION OR FOG.

ILZ001-002-007-009-015-016-024-172100-
NORTHWEST ILLINOIS

CITY           SKY/WX    TMP DP  RH WIND       PRES   REMARKS
MOLINE         FOG       36  34  92 W10       29.94R VSB 1   WCI  28
STERLING*      MIX PCPN  36  35  96 W14       29.92R FOG     WCI  27
SAVANNA*       CLOUDY    36  34  93 W7        29.91S FOG     WCI  30
$$

ILZ003-004-008-010-011-017-018-172100-
NORTH CENTRAL ILLINOIS

CITY           SKY/WX    TMP DP  RH WIND       PRES   REMARKS
ROCKFORD       CLOUDY    37  34  89 W10       29.90R FOG     WCI  30
FREEPORT*      CLOUDY    34  34  99 W10       29.90R FOG     WCI  26
ROCHELLE*      CLOUDY    35  35  99 W10G18    29.90R FOG     WCI  27
DE KALB*       CLOUDY    36  35  98 W12       29.89R FOG     WCI  27
$$

ILZ005-006-012>014-019>023-172100-
NORTHEAST ILLINOIS

CITY           SKY/WX    TMP DP  RH WIND       PRES   REMARKS
CHICAGO-OHARE  CLOUDY    38  36  92 W12       29.86R WCI  30
CHICAGO-MIDWAY CLOUDY    37  35  92 SW12      29.88R WCI  29
AURORA         CLOUDY    37  35  92 W12       29.89R FOG     WCI  29
LANSING*       CLOUDY    38  38 100 W13       29.89R WCI  30
JOLIET*        CLOUDY    38  38  99 W7        29.91R FOG     WCI  32
WAUKEGAN       CLOUDY    38  36  92 W7        29.84R WCI  33
DUPAGE AIRPORT CLOUDY    37  34  89 W12       29.87R WCI  29
WHEELING       CLOUDY    39  35  86 W8        29.87R WCI  33
MORRIS*        CLOUDY    37  36  96 W12       29.91R FOG     WCI  29
ROMEOVILLE*    CLOUDY    37  37 100 W13       29.89S FOG     WCI  28
NORTHERLY ISL    N/A     39  36  89 SW10        N/A  WCI  32
$$

LMZ740>746-172100-
SOUTHERN LAKE MICHIGAN

STATION/POSITION SKY/WX   TEMP    WIND        PRES    VSBY  WAVE
                          AIR SEA DIR/SP/G                  HT/PER
                          (F)     (DEG/KT/KT) (MB)    (MI)  (FT/S)
HARRISON CRIB              40     240/ 10/ 12   N/A
BURNHAM HARBOR             39     240/  7/ 11   N/A
CALUMET HARBOR             38     220/  6/ 12 1011.1R
BURNS HARBOR               37     240/ 11/ 12 1012.5R
$$

ILZ025>027-034>036-040-047-049-050-058-095>099-172100-
WEST-CENTRAL ILLINOIS

CITY           SKY/WX    TMP DP  RH WIND       PRES   REMARKS
QUINCY         CLOUDY    38  35  89 W13       30.01R WCI  30
GALESBURG*     CLOUDY    35  35 100 W15       29.96S FOG     WCI  25
MACOMB*        CLOUDY    36  36 100 W17       30.00S FOG     WCI  26
JACKSONVILLE*  CLOUDY    39  36  87 W13G18    29.99S WCI  32
PITTSFIELD*    CLOUDY    39  37  90 W13G20    30.02R WCI  32
$$

ILZ028>032-037-038-041>044-048-051>054-059>061-172100-
CENTRAL ILLINOIS

CITY           SKY/WX    TMP DP  RH WIND       PRES   REMARKS
BLOOMINGTON    CLOUDY    37  36  96 W18       29.95R FOG     WCI  27
DECATUR        CLOUDY    40  40 100 W10       29.97S FOG
PEORIA         CLOUDY    37  36  96 W15       29.96R WCI  28
LACON*         CLOUDY    36  36  98 W10G16    29.94S WCI  29
LINCOLN*       CLOUDY    40  38  92 W7        29.97S
SPRINGFIELD    CLOUDY    42  37  82 W14       29.99R
TAYLORVILLE    CLOUDY    42  39  91 W12G22    29.99S
$$

ILZ033-039-045-046-055>057-062-063-172100-
EAST-CENTRAL ILLINOIS

CITY           SKY/WX    TMP DP  RH WIND       PRES   REMARKS
CHAMPAIGN      CLOUDY    41  38  89 W17       29.96R
MATTOON        CLOUDY    43  30  60 W10G21    29.96S
PARIS*         CLOUDY    43  41  93 W16       29.97S
$$

ILZ079-100>102-172100-
SOUTHWEST ILLINOIS

CITY           SKY/WX    TMP DP  RH WIND       PRES   REMARKS
ALTON            N/A     43  39  87 W16       30.02S
BELLEVILLE     MOSUNNY   46  40  77 W13       30.01S
CAHOKIA*       CLOUDY    46  37  71 W12G20    30.03R
SPARTA*        CLOUDY    43  38  84 W7        30.04F
$$

ILZ064>066-069>071-074>076-080>082-084>086-088>090-092>094-172100-
SOUTH-CENTRAL ILLINOIS

CITY           SKY/WX    TMP DP  RH WIND       PRES   REMARKS
CARBONDALE     CLOUDY    44  40  85 W8        30.04S
CAIRO*         CLOUDY    45  41  85 W8        30.06R
EFFINGHAM*     CLOUDY    45  44  97 SW10      30.01R
MARION         CLOUDY    45  43  93 W9        30.04F
MT. VERNON     CLOUDY    44  39  82 W10       30.03R
CENTRALIA*     CLOUDY    45  41  85 W13       30.01R
SALEM*         CLOUDY    47  40  76 W15       30.01R
$$

ILZ067-068-072-073-078-083-087-091-172100-
SOUTHEAST ILLINOIS

CITY           SKY/WX    TMP DP  RH WIND       PRES   REMARKS
LAWRENCEVILLE  CLOUDY    47  41  80 W10       30.00R
FLORA*         CLOUDY    47  42  84 W9        30.01R
FAIRFIELD*     CLOUDY    45  42  88 SW5       30.01R
HARRISBURG*    CLOUDY    45  41  86 W13       30.04S
ROBINSON*      CLOUDY    45  40  85 W13G18    30.00S
CARMI*         CLOUDY    46  41  84 W10       30.02S
$$

ABBREVIATIONS USED IN REMARKS
   TC - TEMPERATURE IN CELSIUS
  WCI - WIND CHILL INDEX
   HX - HEAT INDEX
  VSB - VISIBILITY
$$





USA.gov is the U.S. government's official web portal to all federal, state and local government web resources and services.